Regional Weather Roundup
Issued by NWS Cleveland, OH

Home | Current Version | Previous Version | Text Only | Print | Product List | Glossary On
Versions: 1 2 3 4 5 6 7 8 9 10 11 12 13 14 15 16 17 18 19 20 21 22 23 24 25 26 27 28 29 30 31 32 33 34 35 36 37 38 39 40 41 42 43 44 45 46 47 48 49 50
000
ASUS41 KCLE 071312
RWRCLE
OHIO REGIONAL WEATHER ROUNDUP
NATIONAL WEATHER SERVICE WILMINGTON, OH
800 AM EST SUN FEB 07 2016

NOTE: "FAIR" INDICATES FEW OR NO CLOUDS BELOW 12,000 FEET WITH NO
SIGNIFICANT WEATHER AND/OR OBSTRUCTIONS TO VISIBILITY.

OHZ001>008-015>018-024>027-034-035-043-044-071400-
   NORTHWEST OHIO

CITY           SKY/WX    TMP DP  RH WIND       PRES   REMARKS
DEFIANCE       FAIR      33  25  72 S6        29.98F WCI  28
FINDLAY        FAIR      32  25  75 S9        30.00F WCI  24
TOLEDO EXPRESS FAIR      33  25  72 SW6       29.98F WCI  28
TOLEDO EXEC    FAIR      33  25  72 S8        30.00F WCI  26
LIMA           FAIR      33  24  69 S10       30.01F WCI  25
$$

OHZ009>014-019>023-028>033-038-089-071400-
   NORTHEAST OHIO

CITY           SKY/WX    TMP DP  RH WIND       PRES   REMARKS
CLE-HOPKINS    FAIR      34  22  61 S10       30.06F WCI  26
CLE-LAKEFRONT  FAIR      34  22  61 SE10      30.03F WCI  26
CUY CO. ARPT   PTCLDY    34  23  64 S12       30.05F WCI  25
LORAIN-ELYRIA  FAIR      31  22  69 S8        30.03F WCI  23
ASHTABULA      FAIR      28  19  69 S7        30.06F WCI  21
AKRON-CANTON   FAIR      27  19  72 S8        30.07S WCI  19
WOOSTER        FAIR      29  21  72 S8        30.07S WCI  21
MANSFIELD      FAIR      31  23  72 S9        30.04F WCI  23
YOUNGSTOWN     FAIR      28  18  66 S8        30.07S WCI  20
$$

OHZ042-051>053-060>062-070>072-077>081-071400-
  SOUTHWEST OHIO

CITY           SKY/WX    TMP DP  RH WIND       PRES   REMARKS
CINC-COVINGTON FAIR      31  22  69 S7        30.11S WCI  24
CINC-LUNKEN    FAIR      24  23  96 CALM      30.15R
HAMILTON       FAIR      25  22  88 E5        30.12S WCI  19
DAYTON         FAIR      33  24  69 S12       30.07S WCI  24
WRIGHT-PAT AFB FAIR      27  22  80 S7        30.07S WCI  20
DAYTON GENERAL FAIR      28  21  75 S8        30.08S WCI  20
WILMINGTON     FAIR      30  23  75 S6        30.10S WCI  24
$$

OHZ036-037-039>041-045>050-054>059-063>069-073>076-082>088-071400-
  CENTRAL AND SOUTHEAST OHIO

CITY           SKY/WX    TMP DP  RH WIND       PRES   REMARKS
COLUMBUS       FAIR      29  21  72 SE5       30.10S WCI  24
OSU AIRPORT    FAIR      27  22  81 S3        30.08S
BOLTON FIELD   NOT AVBL
RICKENBACK AFB FAIR      28  22  78 S7        30.10S WCI  21
NEWARK         FAIR      22  18  85 CALM      30.11R
MARION         FAIR      29  21  72 S8        30.05F WCI  21
LANCASTER      FAIR      25  20  81 SE5       30.11S WCI  19
ZANESVILLE     FAIR      22  17  81 CALM      30.12S
NEW PHILLY     MOCLDY    25  19  78 SE8       30.12S WCI  16
$$



USA.gov is the U.S. government's official web portal to all federal, state and local government web resources and services.